Weather History for KIKK - November, 2012

Change the Weather History Date:

Tuesday, November 13, 2012

  Actual Average Record
Temperature  
Mean Temperature 30 °F -  
Max Temperature 39 °F 49 °F 71 °F (2011)
Min Temperature 21 °F 29 °F 4 °F (1986)
Degree Days  
Heating Degree Days 35    
Moisture  
Dew Point 24 °F    
Average Humidity 76    
Maximum Humidity 95    
Minimum Humidity 53    
Precipitation  
Precipitation 0.00 in - - ()
Sea Level Pressure  
Sea Level Pressure 30.47 in    
Wind  
Wind Speed 5 mph (West)    
Max Wind Speed 10 mph    
Max Gust Speed -    
Visibility 10 miles    
Events      
Averages and records for this station are not official NWS values.
T = Trace of Precipitation, MM = Missing Value Source: NWS Daily Summary

Daily Weather History Graph

Daily Weather History Graph

Search for Another Location

Airport or City:

Trip Planner

Search our weather history database for the weather conditions in past years. The results will help you decide how hot, cold, wet, or windy it might be!

Date:

Astronomy

Nov. 13, 2012 Rise Set
Actual Time 6:37 AM CST 4:33 PM CST
Civil Twilight 6:07 AM CST 5:03 PM CST
Nautical Twilight 5:34 AM CST 5:36 PM CST
Astronomical Twilight 5:02 AM CST 6:08 PM CST
Moon 6:15 AM CST (11/13) 4:26 PM CST (11/13)
Length of Visible Light 10h 55m
Length of Day
9h 56m
Waning Crescent, 0% of the Moon is Illuminated
Nov 13
Waning Crescent
Nov 13
New
Nov 20
First Quarter
Nov 28
Full
Dec 6
Last Quarter

Hourly Weather History & Observations

Time (CST) Temp. Windchill Dew Point Humidity Pressure Visibility Wind Dir Wind Speed Gust Speed Precip Events Conditions
12:15 AM 30.0 °F 23.2 °F 26.8 °F 88% 30.36 in 10.0 mi WSW 6.9 mph - N/A   Clear
12:35 AM 30.2 °F 23.4 °F 26.6 °F 86% 30.36 in 10.0 mi WSW 6.9 mph - N/A   Clear
12:55 AM 30.6 °F 21.8 °F 26.4 °F 85% 30.36 in 10.0 mi West 10.4 mph - N/A   Clear
1:15 AM 31.1 °F 23.1 °F 26.8 °F 84% 30.37 in 10.0 mi West 9.2 mph - N/A   Mostly Cloudy
1:35 AM 30.4 °F 22.9 °F 26.8 °F 86% 30.38 in 10.0 mi West 8.1 mph - N/A   Overcast
1:55 AM 30.6 °F 23.1 °F 26.4 °F 85% 30.39 in 10.0 mi West 8.1 mph - N/A   Mostly Cloudy
2:15 AM 30.6 °F 25.8 °F 25.3 °F 81% 30.40 in 10.0 mi WNW 4.6 mph - N/A   Scattered Clouds
2:35 AM 30.2 °F 26.7 °F 23.4 °F 76% 30.40 in 10.0 mi NW 3.5 mph - N/A   Clear
2:55 AM 29.3 °F 25.6 °F 23.2 °F 78% 30.40 in 10.0 mi WNW 3.5 mph - N/A   Clear
3:15 AM 28.4 °F 24.6 °F 23.0 °F 80% 30.40 in 10.0 mi WNW 3.5 mph - N/A   Clear
3:35 AM 29.1 °F 23.0 °F 21.9 °F 74% 30.41 in 10.0 mi WNW 5.8 mph - N/A   Clear
3:55 AM 28.9 °F 23.9 °F 21.6 °F 74% 30.42 in 10.0 mi WNW 4.6 mph - N/A   Clear
4:15 AM 28.4 °F 24.6 °F 21.6 °F 76% 30.42 in 10.0 mi WNW 3.5 mph - N/A   Clear
4:35 AM 28.0 °F - 21.4 °F 76% 30.44 in 10.0 mi Calm Calm - N/A   Clear
4:55 AM 25.7 °F 21.5 °F 21.2 °F 83% 30.45 in 10.0 mi West 3.5 mph - N/A   Clear
5:15 AM 25.7 °F 21.5 °F 21.2 °F 83% 30.45 in 10.0 mi West 3.5 mph - N/A   Clear
5:35 AM 25.3 °F - 20.8 °F 83% 30.45 in 10.0 mi Calm Calm - N/A   Clear
5:55 AM 24.8 °F - 22.1 °F 89% 30.46 in 10.0 mi Calm Calm - N/A   Clear
6:15 AM 24.8 °F - 22.5 °F 91% 30.46 in 10.0 mi Calm Calm - N/A   Clear
6:35 AM 23.0 °F 17.0 °F 21.2 °F 93% 30.47 in 10.0 mi SSW 4.6 mph - N/A   Clear
6:55 AM 21.9 °F - 20.7 °F 95% 30.48 in 10.0 mi Calm Calm - N/A   Clear
7:15 AM 23.9 °F 19.5 °F 21.9 °F 92% 30.49 in 10.0 mi SSW 3.5 mph - N/A   Clear
7:35 AM 26.2 °F 22.1 °F 24.1 °F 92% 30.50 in 10.0 mi SW 3.5 mph - N/A   Clear
7:55 AM 28.4 °F 22.2 °F 25.0 °F 87% 30.50 in 10.0 mi WSW 5.8 mph - N/A   Clear
8:15 AM 29.5 °F 23.4 °F 25.2 °F 84% 30.50 in 10.0 mi West 5.8 mph - N/A   Clear
8:35 AM 30.6 °F 25.8 °F 24.4 °F 78% 30.50 in 10.0 mi West 4.6 mph - N/A   Clear
8:55 AM 31.6 °F 26.0 °F 24.4 °F 75% 30.51 in 10.0 mi West 5.8 mph - N/A   Clear
9:15 AM 32.2 °F 25.0 °F 25.3 °F 76% 30.51 in 10.0 mi West 8.1 mph - N/A   Clear
9:35 AM 32.7 °F 25.0 °F 25.0 °F 73% 30.52 in 10.0 mi West 9.2 mph - N/A   Clear
9:55 AM 32.9 °F 25.9 °F 24.4 °F 71% 30.52 in 10.0 mi West 8.1 mph - N/A   Clear
10:15 AM 34.0 °F 27.2 °F 24.4 °F 68% 30.52 in 10.0 mi West 8.1 mph - N/A   Clear
10:35 AM 34.3 °F 30.2 °F 23.5 °F 65% 30.52 in 10.0 mi WNW 4.6 mph - N/A   Clear
10:55 AM 34.5 °F 29.4 °F 23.2 °F 63% 30.51 in 10.0 mi WNW 5.8 mph - N/A   Clear
11:15 AM 34.9 °F 29.9 °F 23.0 °F 62% 30.50 in 10.0 mi WNW 5.8 mph - N/A   Clear
11:35 AM 36.1 °F 29.3 °F 24.6 °F 63% 30.49 in 10.0 mi West 9.2 mph - N/A   Clear
11:55 AM 36.0 °F 32.1 °F 23.7 °F 61% 30.49 in 10.0 mi West 4.6 mph - N/A   Clear
12:15 PM 37.0 °F 31.6 °F 25.0 °F 62% 30.49 in 10.0 mi West 6.9 mph - N/A   Clear
12:35 PM 37.4 °F 31.4 °F 24.8 °F 60% 30.48 in 10.0 mi West 8.1 mph - N/A   Clear
12:55 PM 37.6 °F 34.0 °F 24.1 °F 58% 30.48 in 10.0 mi West 4.6 mph - N/A   Clear
1:15 PM 38.1 °F 35.7 °F 23.9 °F 57% 30.47 in 10.0 mi West 3.5 mph - N/A   Clear
1:35 PM 37.8 °F 34.2 °F 24.4 °F 59% 30.47 in 10.0 mi West 4.6 mph - N/A   Clear
1:55 PM 38.7 °F 35.2 °F 24.8 °F 58% 30.46 in 10.0 mi West 4.6 mph - N/A   Clear
2:15 PM 38.7 °F 35.2 °F 25.2 °F 58% 30.47 in 10.0 mi WSW 4.6 mph - N/A   Clear
2:35 PM 39.0 °F - 25.7 °F 59% 30.47 in 10.0 mi Calm Calm - N/A   Clear
2:55 PM 39.0 °F - 23.9 °F 55% 30.47 in 10.0 mi Calm Calm - N/A   Clear
3:15 PM 39.2 °F - 23.5 °F 53% 30.47 in 10.0 mi Calm Calm - N/A   Clear
3:35 PM 39.0 °F - 24.4 °F 56% 30.47 in 10.0 mi Calm Calm - N/A   Clear
3:55 PM 38.5 °F 35.0 °F 24.8 °F 58% 30.47 in 10.0 mi West 4.6 mph - N/A   Clear
4:15 PM 38.3 °F - 24.1 °F 57% 30.47 in 10.0 mi Calm Calm - N/A   Clear
4:35 PM 37.0 °F - 24.8 °F 61% 30.47 in 10.0 mi Calm Calm - N/A   Clear
4:55 PM 35.1 °F - 25.3 °F 68% 30.47 in 10.0 mi Calm Calm - N/A   Clear
5:15 PM 35.1 °F - 24.4 °F 65% 30.48 in 10.0 mi Calm Calm - N/A   Clear
5:35 PM 33.3 °F - 25.5 °F 73% 30.48 in 10.0 mi Calm Calm - N/A   Clear
5:55 PM 32.7 °F 29.6 °F 25.2 °F 74% 30.48 in 10.0 mi SE 3.5 mph - N/A   Clear
6:15 PM 30.7 °F - 25.3 °F 80% 30.49 in 10.0 mi Calm Calm - N/A   Clear
6:35 PM 30.2 °F - 25.5 °F 83% 30.49 in 10.0 mi Calm Calm - N/A   Clear
6:55 PM 30.0 °F - 25.5 °F 83% 30.49 in 10.0 mi Calm Calm - N/A   Clear
7:15 PM 28.8 °F - 25.3 °F 87% 30.49 in 10.0 mi Calm Calm - N/A   Clear
7:35 PM 29.1 °F - 25.5 °F 86% 30.49 in 10.0 mi Calm Calm - N/A   Clear
7:55 PM 28.9 °F - 25.3 °F 86% 30.49 in 10.0 mi Calm Calm - N/A   Clear
8:15 PM 29.8 °F 26.3 °F 25.5 °F 84% 30.50 in 10.0 mi SE 3.5 mph - N/A   Clear
8:35 PM 28.6 °F - 25.3 °F 88% 30.50 in 10.0 mi Calm Calm - N/A   Clear
8:55 PM 28.4 °F 24.6 °F 25.5 °F 89% 30.50 in 10.0 mi ESE 3.5 mph - N/A   Clear
9:15 PM 27.3 °F 23.4 °F 24.4 °F 89% 30.49 in 10.0 mi SE 3.5 mph - N/A   Clear
9:35 PM 29.1 °F 23.0 °F 25.7 °F 87% 30.49 in 10.0 mi ESE 5.8 mph - N/A   Clear
9:55 PM 29.3 °F 24.3 °F 25.5 °F 86% 30.49 in 10.0 mi SE 4.6 mph - N/A   Clear
10:15 PM 29.7 °F 24.7 °F 25.5 °F 85% 30.49 in 10.0 mi SE 4.6 mph - N/A   Clear
10:35 PM 29.7 °F 26.1 °F 25.2 °F 83% 30.50 in 10.0 mi SE 3.5 mph - N/A   Clear
10:55 PM 28.2 °F - 25.0 °F 88% 30.50 in 10.0 mi Calm Calm - N/A   Clear
11:15 PM 27.0 °F - 24.8 °F 92% 30.51 in 10.0 mi Calm Calm - N/A   Clear
11:35 PM 27.3 °F - 25.0 °F 91% 30.51 in 10.0 mi Calm Calm - N/A   Clear
11:55 PM 27.7 °F - 25.0 °F 90% 30.51 in 10.0 mi Calm Calm - N/A   Clear